Date String (YYYY-MM-DD hh:mm:ss) UTC,Instrument flags,Ambient pressure (hPa),Sample flow (lpm),Bypass flow (lpm),Sample temperature (°C),Ambient temperature (°C),ASC tube jacket temperature (°C),LED temperature (°C),Box temperature (°C),Sample RH (%),Span deviation,Mass concentration (μg/m³),Mass concentration (μg/m³),Mass concentration (μg/m³)
DateTimeUTC,F1_M11,P_M11,Q1_M11,Q2_M11,T1_M11,T2_M11,T3_M11,T4_M11,T5_M11,U1_M11,ZSPAN_M11,X2_M11,X0_M11,X1_M11
2022-12-05 23:00:00,,0817.5,5.01,0.00,25.1,23.6,00.0,34.0,26.9,16.2,0000.0,0003.87,0008.53,0003.43
2022-12-05 23:01:00,,0817.5,5.01,0.00,25.1,23.5,00.0,34.0,26.9,16.1,0000.0,0003.88,0008.50,0003.45
2022-12-05 23:02:00,,0817.5,5.00,0.00,25.0,23.5,00.0,34.0,26.9,16.2,0000.0,0003.89,0008.46,0003.47
2022-12-05 23:03:00,,0817.5,5.01,0.00,25.0,23.4,00.0,34.0,26.9,16.2,0000.0,0003.87,0008.70,0003.46
2022-12-05 23:04:00,,0817.5,5.00,0.00,25.0,23.4,00.0,34.0,26.8,16.2,0000.0,0003.86,0008.87,0003.47
2022-12-05 23:05:00,,0817.5,5.00,0.00,25.0,23.4,00.0,34.0,26.8,16.2,0000.0,0003.90,0008.98,0003.48
2022-12-05 23:06:00,,0817.6,4.99,0.00,25.0,23.4,00.0,34.0,26.8,16.3,0000.0,0003.92,0009.13,0003.50
2022-12-05 23:07:00,,0817.6,5.00,0.00,25.0,23.4,00.0,34.0,26.9,16.2,0000.0,0003.92,0009.13,0003.52
2022-12-05 23:08:00,,0817.5,5.00,0.00,25.0,23.5,00.0,34.0,26.9,16.2,0000.0,0003.94,0008.65,0003.53
2022-12-05 23:09:00,,0817.5,5.00,0.00,25.0,23.5,00.0,34.0,26.9,16.2,0000.0,0003.93,0007.70,0003.52
2022-12-05 23:10:00,,0817.6,5.00,0.00,25.0,23.5,00.0,33.9,26.9,16.1,0000.0,0003.92,0008.08,0003.51
2022-12-05 23:11:00,,0817.7,5.00,0.00,25.0,23.5,00.0,33.9,26.9,16.2,0000.0,0003.91,0008.22,0003.51
2022-12-05 23:12:00,,0817.7,4.99,0.00,25.0,23.6,00.0,33.9,26.9,16.2,0000.0,0003.90,0008.26,0003.48
2022-12-05 23:13:00,,0817.7,5.00,0.00,25.0,23.6,00.0,33.9,26.9,16.2,0000.0,0003.88,0008.44,0003.45
2022-12-05 23:14:00,,0817.7,5.01,0.00,25.0,23.6,00.0,33.9,26.9,16.2,0000.0,0003.88,0008.61,0003.43
2022-12-05 23:15:00,,0817.6,5.01,0.00,25.0,23.5,00.0,33.9,26.9,16.2,0000.0,0003.90,0009.02,0003.43
2022-12-05 23:16:00,,0817.6,5.00,0.00,25.0,23.5,00.0,33.9,26.9,16.2,0000.0,0003.86,0009.39,0003.42
2022-12-05 23:17:00,,0817.6,4.99,0.00,25.0,23.6,00.0,33.9,26.9,16.2,0000.0,0003.82,0009.17,0003.40
2022-12-05 23:18:00,,0817.6,5.00,0.00,25.0,23.5,00.0,33.9,26.9,16.2,0000.0,0003.81,0009.22,0003.39
2022-12-05 23:19:00,,0817.6,4.99,0.00,25.0,23.5,00.0,33.9,26.9,16.2,0000.0,0003.81,0009.81,0003.38
2022-12-05 23:20:00,,0817.6,5.02,0.00,25.0,23.5,00.0,33.9,26.9,16.2,0000.0,0003.80,0010.29,0003.39
2022-12-05 23:21:00,,0817.6,5.00,0.00,25.0,23.5,00.0,33.9,26.8,16.2,0000.0,0003.81,0010.69,0003.39
2022-12-05 23:22:00,,0817.5,5.00,0.00,25.0,23.5,00.0,33.9,26.8,16.2,0000.0,0003.82,0011.30,0003.40
2022-12-05 23:23:00,,0817.6,5.00,0.00,25.0,23.5,00.0,33.9,26.8,16.1,-000.0,0003.84,0011.44,0003.43
2022-12-05 23:24:00,,0817.5,5.00,0.00,24.9,23.5,00.0,33.9,26.8,16.1,-000.0,0003.87,0011.59,0003.45
2022-12-05 23:25:00,,0817.5,5.00,0.00,24.9,23.5,00.0,33.9,26.8,16.1,-000.1,0003.90,0012.04,0003.47
2022-12-05 23:26:00,,0817.4,4.99,0.00,24.9,23.5,00.0,33.9,26.8,16.1,0000.5,0003.91,0012.27,0003.48
2022-12-05 23:27:00,,0817.4,5.00,0.00,24.9,23.5,00.0,33.9,26.8,16.1,0000.5,0003.93,0011.86,0003.51
2022-12-05 23:28:00,,0817.5,5.01,0.00,24.9,23.5,00.0,33.9,26.8,16.1,0000.4,0003.97,0012.18,0003.54
2022-12-05 23:29:00,,0817.6,5.00,0.00,24.9,23.4,00.0,33.9,26.8,16.1,0001.2,0004.04,0013.02,0003.56
2022-12-05 23:30:00,,0817.6,5.00,0.00,24.9,23.4,00.0,33.9,26.8,16.1,0001.2,0004.08,0012.49,0003.58
2022-12-05 23:31:00,,0817.6,5.00,0.00,24.9,23.3,00.0,33.9,26.7,16.1,0001.1,0004.11,0012.31,0003.61
2022-12-05 23:32:00,,0817.6,5.00,0.00,24.9,23.2,00.0,33.9,26.7,16.1,-000.6,0004.11,0012.25,0003.62
2022-12-05 23:33:00,,0817.6,4.99,0.00,24.9,23.2,00.0,33.9,26.7,16.1,0000.3,0004.17,0012.00,0003.65
2022-12-05 23:34:00,,0817.6,5.00,0.00,24.8,23.2,00.0,33.9,26.7,16.1,-000.0,0004.21,0012.50,0003.66
2022-12-05 23:35:00,,0817.6,5.00,0.00,24.8,23.1,00.0,33.9,26.7,16.1,0000.0,0004.21,0012.58,0003.66
2022-12-05 23:36:00,,0817.6,5.00,0.00,24.8,23.1,00.0,33.8,26.7,16.1,0000.0,0004.19,0011.80,0003.66
2022-12-05 23:37:00,,0817.6,5.00,0.00,24.8,23.1,00.0,33.8,26.7,16.0,0000.0,0004.23,0011.09,0003.68
2022-12-05 23:38:00,,0817.6,5.00,0.00,24.8,23.1,00.0,33.8,26.7,16.0,0000.0,0004.26,0011.21,0003.69
2022-12-05 23:39:00,,0817.6,5.00,0.00,24.8,23.2,00.0,33.8,26.7,16.1,-000.4,0004.28,0010.94,0003.71
2022-12-05 23:40:00,,0817.6,5.00,0.00,24.8,23.2,00.0,33.8,26.7,16.1,0000.0,0004.32,0010.50,0003.73
2022-12-05 23:41:00,,0817.6,5.00,0.00,24.8,23.1,00.0,33.8,26.6,16.1,0000.0,0004.35,0011.10,0003.76
2022-12-05 23:42:00,,0817.6,5.00,0.00,24.8,23.1,00.0,33.8,26.6,16.1,0000.0,0004.37,0010.91,0003.78
2022-12-05 23:43:00,,0817.7,5.00,0.00,24.8,23.1,00.0,33.8,26.6,16.0,0000.0,0004.42,0010.28,0003.82
2022-12-05 23:44:00,,0817.6,5.00,0.00,24.7,23.1,00.0,33.8,26.6,15.9,0000.0,0004.44,0010.11,0003.85
2022-12-05 23:45:00,,0817.7,5.00,0.00,24.7,23.0,00.0,33.7,26.6,16.0,0000.0,0004.46,0009.70,0003.88
2022-12-05 23:46:00,,0817.7,5.00,0.00,24.7,23.0,00.0,33.7,26.6,16.0,0000.0,0004.51,0009.27,0003.92
2022-12-05 23:47:00,,0817.7,4.99,0.00,24.7,23.1,00.0,33.7,26.5,16.0,0000.0,0004.57,0009.65,0003.96
2022-12-05 23:48:00,,0817.7,4.99,0.00,24.7,23.1,00.0,33.7,26.5,16.0,0000.0,0004.61,0010.79,0003.99
2022-12-05 23:49:00,,0817.7,5.00,0.00,24.7,23.1,00.0,33.7,26.5,16.0,0000.0,0004.65,0010.98,0004.00
2022-12-05 23:50:00,,0817.7,5.00,0.00,24.7,23.1,00.0,33.7,26.5,16.0,0000.0,0004.71,0011.14,0004.02
2022-12-05 23:51:00,,0817.7,5.00,0.00,24.7,23.1,00.0,33.7,26.5,16.0,0000.5,0004.72,0010.88,0004.03
2022-12-05 23:52:00,,0817.8,5.00,0.00,24.7,23.1,00.0,33.7,26.5,16.1,-001.5,0004.75,0010.41,0004.03
2022-12-05 23:53:00,,0817.8,5.01,0.00,24.7,23.2,00.0,33.7,26.5,16.1,-002.4,0004.78,0010.93,0004.03
2022-12-05 23:54:00,,0817.7,5.00,0.00,24.7,23.2,00.0,33.7,26.6,16.0,-002.9,0004.79,0010.97,0004.02
2022-12-05 23:55:00,,0817.7,4.99,0.00,24.7,23.3,00.0,33.7,26.6,16.0,-003.1,0004.79,0010.92,0004.01
2022-12-05 23:56:00,,0817.7,4.99,0.00,24.7,23.3,00.0,33.7,26.6,16.0,-002.6,0004.80,0010.83,0004.00
2022-12-05 23:57:00,,0817.8,5.01,0.00,24.7,23.3,00.0,33.7,26.6,16.0,-004.0,0004.80,0010.74,0004.00
2022-12-05 23:58:00,,0817.8,5.01,0.00,24.7,23.2,00.0,33.7,26.6,16.0,-003.1,0004.83,0010.95,0004.01
2022-12-05 23:59:00,,0817.8,5.01,0.00,24.7,23.2,00.0,33.7,26.6,16.0,-002.5,0004.83,0010.27,0004.02
